Showing default

PRATHAM, 41783

Orbit data source: Space-Track

PRATHAM, 41783 is a payload satellite owned by IITB (IN) in SSO that was launched on Mon, 26 Sep 2016 UTC via a PSLV launch vehicle from the Sirharikota (SRI). Payload-class satellites include a variety of spacecraft equipped with specific instruments for various scientific and technological missions. These include communications satellites like Starlink; space stations such as the ISS; scientific satellites like the Hubble; Earth observation satellites from companies like Planet Labs, Umbra, and HawkEye 360; GPS; miniature CubeSats for education and research; and military/defense satellites.

Loading next visibility...
Identifier
41783, 2016-059A
Orbit
SSO
Country
Flag of ININ / IND
Related business
Manufacturer
IITB
Mission
Non-operational Amateur Science
Bus & Motor
PRATHAM, Unknown motor
Mass
10 kg wet, 10 kg dry
Launch date (UTC)
2016-09-26 (9 years ago)
Launch vehicle
PSLV
Launch site
Sirharikota (SRI)
Object type
Payload
Rocket body
Debris
Shape & HBR
Box, 0.2 m
Radar Cross Section
0.189 m², Small (<0.1 m²)

Expand to show TLE details & history
Last TLE update: 11 hours ago

TLE from 11 hours ago
0 PRATHAM
1 41783U 16059A   25310.27278286  .00001187  00000-0  21997-3 0  9995
2 41783  97.8272 312.1014 0030759 206.2725 153.6922 14.66729533486833
Epoch: 2025-11-06T06:32Z
TLE epoch observation values (Epoch: 2025-11-06T06:32:48.439Z)
Latitude
0.00008°
Longitude
168.16609°
Altitude
693.989 km
Speed
7.499 km/s
True Right ascension
20h 48m 24s
True Declination
0° 00' 00"
Sunlit
Object was in daylight at epoch
Visualization orbit readout
Latitude
Unknown
Longitude
Unknown
Altitude
Unknown
Speed
Unknown
Apparent Right ascension
Unknown
Apparent Declination
Unknown
Sunlit
N/A
Visualization observer readout
Local Sidereal Time
14:06:04
Azimuth
Unknown
Elevation
Unknown
Doppler factor
Unknown
Orbital elements
Apogee altitude
690.258 km
Perigee altitude
646.908 km
Semi-major axis
7,046.72 km
Eccentricity
0.00308
Inclination
97.8272°
RAAN
312.1014°
Arg. of periapsis
206.2725°
True anomaly
153.84788°
Mean anomaly
153.6922°
Eccentric anomaly
153.77009°
Mean motion
3.66913 °/min
Orbital period
98.12 mins
BSTAR
0.00021997
Loading maneuver chart data...
Computing Atmospheric mass density...
Loading historical data...
Loading historical data...
Loading historical data...
Loading historical data...
Loading historical data...
Loading historical data...
Loading historical data...

Documentation

Showing up to 5 results
|